This is the latest recevied weather packets stored in our database for station/object DL4JCP-6. If no packets are shown the sender has not sent any weather packets the latest 10 day(s).
| Time | Temp. | Humidity | Pressure | Rain* | Wind** | Luminosity | Snow |
|---|---|---|---|---|---|---|---|
| 1778128392 | 9.44° C | 94% | 1009.5 hPa | 0.25 mm | - | - | - |
| 1778127492 | 9.44° C | 94% | 1009.4 hPa | 0.25 mm | - | - | - |
| 1778126593 | 9.44° C | 94% | 1009.3 hPa | 1.02 mm | - | - | - |
| 1778125692 | 9.44° C | 94% | 1009.1 hPa | 1.52 mm | - | - | - |
| 1778124792 | 9.44° C | 94% | 1009.2 hPa | 2.03 mm | - | - | - |
| 1778123892 | 9.44° C | 94% | 1009.1 hPa | 2.29 mm | - | - | - |
| 1778122992 | 10° C | 94% | 1009.1 hPa | 1.52 mm | - | - | - |
| 1778122092 | 10° C | 94% | 1009 hPa | 0.76 mm | - | - | - |
| 1778121191 | 10° C | 94% | 1009 hPa | 0.25 mm | - | - | - |
| 1778120292 | 10.56° C | 94% | 1009.2 hPa | 0.25 mm | - | - | - |
| 1778119392 | 10.56° C | 94% | 1009.1 hPa | 0.51 mm | - | - | - |
| 1778118492 | 10.56° C | 94% | 1008.9 hPa | 0.51 mm | - | - | - |
| 1778117592 | 10.56° C | 94% | 1008.9 hPa | 0.76 mm | - | - | - |
| 1778116692 | 10.56° C | 93% | 1008.9 hPa | 0.76 mm | - | - | - |
| 1778115791 | 10.56° C | 93% | 1008.8 hPa | 0.51 mm | - | - | - |
| 1778114891 | 10.56° C | 93% | 1008.7 hPa | 0.51 mm | - | - | - |
| 1778113991 | 10.56° C | 93% | 1008.7 hPa | 0.25 mm | - | - | - |
| 1778113092 | 10.56° C | 92% | 1008.6 hPa | 0 mm | - | - | - |
| 1778112191 | 10.56° C | 93% | 1008.7 hPa | 0 mm | - | - | - |
| 1778111291 | 10.56° C | 93% | 1008.7 hPa | 0 mm | - | - | - |
| 1778110392 | 11.11° C | 93% | 1008.8 hPa | 0.51 mm | - | - | - |
| 1778109492 | 11.11° C | 93% | 1008.4 hPa | 0.51 mm | - | - | - |
| 1778108591 | 11.11° C | 93% | 1008.4 hPa | 0.76 mm | - | - | - |
| 1778107691 | 11.11° C | 93% | 1008.4 hPa | 1.27 mm | - | - | - |
| 1778106791 | 11.67° C | 92% | 1008.4 hPa | 1.02 mm | - | - | - |
* Rain latest hour (hover to see other rain measurements)
** Current wind speed in m/s (hover to see current wind gust speed)